Mason City, IA

12:10 AM CDT on April 25, 2017 (GMT -0500)
Mason City Municipal

Weather History for KMCW - November, 2013

Change the Weather History Date:

Friday, November 1, 2013

  Actual Average Record
Temperature  
Mean Temperature 47 °F 42 °F  
Max Temperature 55 °F 52 °F 78 °F (1933)
Min Temperature 39 °F 31 °F 11 °F (1951)
Degree Days  
Heating Degree Days 18 23  
Month to date heating degree days 18 23  
Since 1 July heating degree days 676 761  
Cooling Degree Days 0 0  
Month to date cooling degree days 0 0  
Year to date cooling degree days 718 616  
Moisture  
Dew Point 37 °F    
Average Humidity 71    
Maximum Humidity 92    
Minimum Humidity 50    
Precipitation  
Precipitation T in 0.07 in 1.93 in (1992)
Month to date precipitation T 0.07  
Year to date precipitation 36.36 32.15  
Snow  
Snow 0.00 in 0.10 in 2.00 in (1928)
Month to date snowfall 0.0 0.1  
Since 1 July snowfall T 0.5  
Since 1 September snowfall T 0.5  
Snow Depth 0.00 in    
Sea Level Pressure  
Sea Level Pressure 29.63 in    
Wind  
Wind Speed 13 mph (WNW)    
Max Wind Speed 22 mph    
Max Gust Speed 26 mph    
Visibility 10 miles    
Events Rain    
T = Trace of Precipitation, MM = Missing Value Source: NWS Daily Summary

Daily Weather History Graph

Daily Weather History Graph

Search for Another Location

Airport or City:

Trip Planner

Search our weather history database for the weather conditions in past years. The results will help you decide how hot, cold, wet, or windy it might be!

Date:

Astronomy

Nov. 01, 2013 Rise Set
Actual Time 7:48 AM CDT 6:04 PM CDT
Civil Twilight 7:18 AM CDT 6:34 PM CDT
Nautical Twilight 6:45 AM CDT 7:07 PM CDT
Astronomical Twilight 6:12 AM CDT 7:40 PM CDT
Moon 5:38 AM CDT (11/1) 5:00 PM CDT (11/1)
Length of Visible Light 11h 15m
Length of Day
10h 16m
Waning Crescent, 4% of the Moon is Illuminated
Nov 1
Waning Crescent
Nov 3
New
Nov 9
First Quarter
Nov 17
Full
Nov 25
Last Quarter

Hourly Weather History & Observations

Time (CDT) Temp. Windchill Dew Point Humidity Pressure Visibility Wind Dir Wind Speed Gust Speed Precip Events Conditions
12:00 AM 39.2 °F 31.2 °F 37.4 °F 93% 29.47 in 10.0 mi WNW 13.8 mph - N/A   Overcast
12:32 AM 39.2 °F 32.5 °F 37.4 °F 93% 29.48 in 10.0 mi WNW 10.4 mph - N/A   Overcast
12:53 AM 39.9 °F 33.4 °F 37.9 °F 93% 29.49 in 10.0 mi West 10.4 mph - N/A   Overcast
1:05 AM 39.2 °F 32.5 °F 37.4 °F 93% 29.48 in 10.0 mi West 10.4 mph - 0.00 in Rain Light Rain
1:53 AM 39.9 °F 32.9 °F 37.9 °F 93% 29.50 in 10.0 mi West 11.5 mph - 0.00 in   Overcast
2:53 AM 39.9 °F 32.9 °F 37.9 °F 93% 29.51 in 10.0 mi West 11.5 mph - N/A   Overcast
3:24 AM 39.2 °F 31.6 °F 37.4 °F 93% 29.52 in 10.0 mi West 12.7 mph - N/A   Overcast
3:53 AM 39.9 °F 33.4 °F 37.9 °F 93% 29.53 in 10.0 mi WNW 10.4 mph - N/A   Overcast
4:17 AM 39.2 °F 32.5 °F 37.4 °F 93% 29.52 in 10.0 mi West 10.4 mph - N/A   Overcast
4:53 AM 41.0 °F 33.9 °F 37.9 °F 89% 29.55 in 10.0 mi WNW 12.7 mph - N/A   Overcast
5:51 AM 41.0 °F 33.9 °F 37.4 °F 87% 29.56 in 10.0 mi WNW 12.7 mph - N/A   Overcast
5:53 AM 41.0 °F 33.9 °F 37.9 °F 89% 29.57 in 10.0 mi WNW 12.7 mph - N/A   Overcast
6:45 AM 41.0 °F 33.9 °F 37.4 °F 87% 29.59 in 10.0 mi WNW 12.7 mph - N/A   Overcast
6:53 AM 41.0 °F 33.9 °F 37.9 °F 89% 29.60 in 10.0 mi WNW 12.7 mph - N/A   Overcast
7:53 AM 39.9 °F 33.9 °F 37.0 °F 89% 29.60 in 9.0 mi WNW 9.2 mph - N/A   Scattered Clouds
8:53 AM 41.0 °F 35.2 °F 37.9 °F 89% 29.63 in 8.0 mi West 9.2 mph - N/A   Overcast
9:53 AM 42.1 °F 35.2 °F 37.9 °F 85% 29.65 in 9.0 mi WNW 12.7 mph - 0.00 in   Mostly Cloudy
10:53 AM 43.0 °F 36.0 °F 37.0 °F 80% 29.66 in 10.0 mi WNW 13.8 mph - N/A   Partly Cloudy
11:53 AM 46.9 °F - 36.0 °F 66% 29.67 in 10.0 mi NW 17.3 mph - N/A   Clear
12:53 PM 50.0 °F - 36.0 °F 59% 29.68 in 10.0 mi WNW 16.1 mph 24.2 mph N/A   Clear
1:53 PM 50.0 °F - 35.1 °F 57% 29.68 in 10.0 mi West 13.8 mph 21.9 mph N/A   Scattered Clouds
2:53 PM 53.1 °F - 35.1 °F 50% 29.68 in 10.0 mi West 12.7 mph - N/A   Partly Cloudy
3:53 PM 53.1 °F - 36.0 °F 52% 29.70 in 10.0 mi NW 13.8 mph - N/A   Partly Cloudy
4:53 PM 53.1 °F - 37.9 °F 57% 29.71 in 10.0 mi WNW 18.4 mph 24.2 mph N/A   Overcast
5:53 PM 48.0 °F - 37.0 °F 66% 29.73 in 10.0 mi NW 11.5 mph - N/A   Clear
6:53 PM 45.0 °F 39.7 °F 37.0 °F 74% 29.76 in 10.0 mi WNW 10.4 mph - N/A   Scattered Clouds
7:53 PM 39.9 °F 33.9 °F 35.1 °F 83% 29.79 in 10.0 mi West 9.2 mph - N/A   Clear
8:53 PM 39.0 °F 32.3 °F 35.1 °F 86% 29.81 in 10.0 mi West 10.4 mph - N/A   Clear
9:53 PM 44.1 °F 37.4 °F 37.9 °F 79% 29.82 in 10.0 mi NW 13.8 mph - N/A   Overcast
10:53 PM 41.0 °F 33.5 °F 37.0 °F 86% 29.85 in 10.0 mi NW 13.8 mph - N/A   Clear
11:53 PM 41.0 °F 33.9 °F 37.9 °F 89% 29.87 in 10.0 mi NW 12.7 mph - N/A   Overcast